Regional Weather Roundup
Issued by NWS

Home | Current Version | Previous Version | Graphics & Text | Print | Product List | Glossary On
Versions: 1 2 3 4 5 6 7 8 9 10 11 12 13 14 15 16 17 18 19 20 21 22 23 24 25 26 27 28 29 30 31 32 33 34 35 36 37 38 39 40 41 42 43 44 45 46 47 48 49 50
000
ASUS45 KCYS 310110
RWRWY

WYOMING REGIONAL WEATHER ROUNDUP
NATIONAL WEATHER SERVICE CHEYENNE WY
700 PM MDT SAT AUG 30 2014

NOTE:  "FAIR" INDICATES FEW OR NO CLOUDS BELOW 12,000 FEET
WITH NO SIGNIFICANT WEATHER AND/OR OBSTRUCTIONS TO VISIBILITY.

WYZ001-310200-
YELLOWSTONE NATIONAL PARK

CITY           SKY/WX    TMP DP  RH WIND       PRES   REMARKS
LK YELLOWSTONE   N/A     44  40  85 NW8       30.08S
W YELLOWSTONE  NOT AVBL

$$
WYZ002>013-054>058-071-098>099-310200-
NORTHERN WYOMING

CITY           SKY/WX    TMP DP  RH WIND       PRES   REMARKS
JACKSON        MOSUNNY   55  48  76 CALM      29.98S
CODY             N/A    N/A N/A N/A MISG        N/A
GREYBULL       LGT RAIN  60  55  83 E6        29.85F
WORLAND        CLOUDY    59  53  80 S9        29.89F
SHERIDAN       CLOUDY    58  55  90 NE6       29.81F
BUFFALO        CLOUDY    55  51  86 N6        29.87F
GILLETTE       CLOUDY    66  51  58 NW28G39   29.82R
HULETT         FAIR      70  52  52 MISG      29.77
NEWCASTLE      FAIR      82  37  20 W26       29.71

$$
WYZ014>020-022>026-101>103-310200-
CENTRAL WYOMING

CITY           SKY/WX    TMP DP  RH WIND       PRES   REMARKS
BIG PINEY      MOCLDY    63  39  41 W25G33    30.04R
PINEDALE       CLOUDY    55  46  71 W12       30.06R
DUBOIS         FAIR      52  41  66 CALM      30.02F
LANDER         MOCLDY    71  35  26 W7        29.88R
RIVERTON       CLOUDY    62  45  53 N23G33    29.91R
CASPER         HVY RAIN  56  51  84 NW22G35   29.94R
DOUGLAS        CLOUDY    75  39  27 W18       29.85R

$$
WYZ021-027>030-104>119-310200-
SOUTHERN WYOMING

CITY           SKY/WX    TMP DP  RH WIND       PRES   REMARKS
EVANSTON       MOSUNNY   66  40  38 SW13      30.04F
KEMMERER       PTCLDY    64  36  34 SW15G23   30.04S
FORT BRIDGER   FAIR      69  38  31 W18G25    30.06F
ROCK SPRINGS   PTCLDY    61  48  62 S8        30.03F
DIXON          FAIR      67  46  46 W6        30.08S
RAWLINS        CLOUDY    62  43  49 W14       30.03F
LARAMIE        LGT RAIN  54  47  77 W10       30.09S
CHEYENNE       CLOUDY    68  43  40 W20G29    30.02F
TORRINGTON     CLOUDY    79  44  28 SW18G25   29.84R
PINE BLUFFS    RAIN      63  52  67 SW10G24   29.99R

$$



USA.gov is the U.S. government's official web portal to all federal, state and local government web resources and services.